LANDSAT 9

Last updated on Wed Jul 09 2025 00:02:29 GMT+0000 (Coordinated Universal Time)

1 49260U 21088A 25189.43711688 .00000265 00000+0 68866-4 0 9993 2 49260 98.2270 259.6519 0001491 92.4229 267.7140 14.57112686200944
UTC large
Height (km)
Speed (km/s)
/
Latitude / Longitude
Inclination (degrees)
Orbital Period (minutes)
Azimuth
Elevation
Range (km)
Doppler Factor

Next 0 passes for location: London (51.5072 / 0.1276)

Sorry there are no passes over London.